Home > Weather > Campinas > Past weeks

Flag for Brazil Weather for the Past 2 Weeks in Campinas, São Paulo, Brazil

Now
52 °F

Clear.


Feels Like: 47 °F
Forecast: 53 / 76 °F
Wind: 15 mph from Southeast

Location: Campinas Aeroporto

Current Time: May 2, 2016 at 6:18:35 AM

Latest Report: May 2, 2016 at 5:00 AM


Visibility: 10 mi

Pressure: 30.15 "Hg (27.76 "Hg at 686m altitude)

Humidity: 94%

Dew Point: 50 °F

Location of CampinasLocation

Historic Weather in Campinas — Graph

°F

Campinas Temperature Yesterday

Maximum temperature yesterday: 72 °F (at 2:00 PM)
Minimum temperature yesterday: 54 °F (at 4:00 AM)
Average temperature yesterday: 61 °F

High & Low Weather Summary for the Past Weeks

 TemperatureHumidityPressure
High90 °F (Apr 17, 3:00 PM)100% (Apr 27, 12:00 AM)30.21 "Hg (Apr 27, 12:00 AM)
Low50 °F (May 2, 1:00 AM)25% (Apr 21, 3:00 PM)29.83 "Hg (Apr 25, 3:00 PM)
Average72 °F64%30.05 "Hg
* Reported Apr 17 4:00 AM — May 2 4:00 AM, Campinas, Weather by CustomWeather, © 2016

Note: Actual official high and low records may vary slightly from our data, if they occured in-between our weather recording intervals... More about our weather records

Advertising

Campinas Weather History for the Previous 24 Hours

Scroll right to see more
 ConditionsComfort  
Time TempWeatherWind HumidityBarometerVisibility
4:00 AM
Mon, May 2
52 °FClear.16 mph88%30.15 "Hg10 mi
3:00 AM52 °FClear.16 mph82%30.15 "Hg10 mi
2:00 AM50 °FClear.9 mph88%30.15 "Hg10 mi
1:00 AM50 °FClear.10 mph88%30.18 "Hg10 mi
12:00 AM52 °FClear.7 mph82%30.18 "Hg10 mi
11:00 PM
Sun, May 1
54 °FClear.9 mph77%30.18 "Hg10 mi
10:00 PM55 °FClear.10 mph77%30.18 "Hg10 mi
9:00 PM57 °FClear.14 mph67%30.18 "Hg10 mi
8:00 PM59 °FClear.12 mph51%30.15 "Hg10 mi
7:00 PM64 °FClear.9 mph40%30.09 "Hg10 mi
6:00 PM66 °FClear.9 mph35%30.12 "Hg5 mi
5:00 PM72 °FClear.9 mph31%30.12 "Hg10 mi
4:00 PM72 °FSunny.9 mph31%30.09 "Hg10 mi
3:00 PM72 °FSunny.7 mph33%30.12 "Hg10 mi
2:00 PM72 °FSunny.9 mph31%30.12 "Hg10 mi
1:00 PM70 °FSunny.7 mph33%30.15 "Hg10 mi
12:00 PM68 °FPassing clouds.6 mph40%30.18 "HgN/A
11:00 AM66 °FPassing clouds.6 mph46%30.21 "HgN/A
10:00 AM63 °FPassing clouds.9 mph64%30.21 "HgN/A
9:00 AM61 °FSunny.12 mph68%30.21 "Hg10 mi
8:00 AM55 °FSunny.12 mph88%30.18 "Hg10 mi
7:00 AM54 °FClear.8 mph94%30.15 "Hg6 mi
6:00 AM54 °FSunny.6 mph94%30.12 "Hg10 mi
Weather by CustomWeather, © 2016

See weather overviewHow to use our weather pages